Regional Weather Roundup
Issued by NWS Upton, NY

Current Version | Previous Version | Graphics & Text | Print | Product List | Glossary Off
Versions: 1 2 3 4 5 6 7 8 9 10 11 12 13 14 15 16 17 18 19 20 21 22 23 24 25 26 27

000
ASUS41 KOKX 051308
RWROKX

REGIONAL WEATHER ROUNDUP
NATIONAL WEATHER SERVICE NEW YORK NY
800 AM EST MON DEC 05 2016

NOTE: "FAIR" INDICATES FEW OR NO CLOUDS BELOW 12,000 FEET WITH NO
SIGNIFICANT WEATHER AND/OR OBSTRUCTIONS TO VISIBILITY.

NYZ071-072-176-178-NJZ106-104-051400-
NEW YORK CITY METRO AREA

CITY           SKY/WX    TMP DP  RH WIND       PRES   REMARKS
Central Park   CLOUDY    40  37  89 SW8       30.02F WCI  34
Wall St Helipt CLOUDY    41  39  93 SW8       30.02F
Bronx Bot Gard NOT AVBL
LaGuardia APRT LGT RAIN  42  39  89 S7        30.01F FOG
Kennedy INTL   LGT RAIN  41  38  89 W8        30.03S FOG
Breezy Point     N/A     39 N/A N/A SW7         N/A  WCI  34
Newark/Liberty CLOUDY    39  37  92 SW3       30.01F
Teterboro      CLOUDY    38  35  89 CALM      30.00F FOG
$$

NYZ177-179-078>081-051400-
LONG ISLAND NEW YORK

CITY           SKY/WX    TMP DP  RH WIND       PRES   REMARKS
Jones Beach      N/A     39 N/A N/A NW8         N/A  WCI  34
Matinecock PT    N/A     41 N/A N/A SW12        N/A
Farmingdale    LGT RAIN  40  39  97 W8        30.02S FOG     WCI  34
MacArthur/ISP  LGT RAIN  43  41  93 S8        30.01S FOG
Shirley        LGT RAIN  42  41  96 S9        30.02S FOG
Westhampton    LGT RAIN  43  40  89 S8        30.02S
Southampton    NOT AVBL
Bridgehampton  NOT AVBL
East Hampton   CLOUDY    42  38  86 S5        30.01F
Montauk          N/A     43  40  89 VRB5      30.02F
$$

NYZ052-065-067-051400-
HUDSON VALLEY

CITY           SKY/WX    TMP DP  RH WIND       PRES   REMARKS
White Plains   LGT RAIN  37  35  92 SW3       29.99S FOG
Newburgh       CLOUDY    32  32 100 SE6       29.98F FOG     WCI  26
Montgomery     CLOUDY    31  29  92 CALM      29.97S FOG
Poughkeepsie   CLOUDY    32  31  96 SE5       29.98F WCI  27
Albany         LGT SNOW  30  27  88 S3        29.95F FOG
$$

NJZ001-105-106-008-010-013-015-019>022-104-051400-
NEW JERSEY

CITY           SKY/WX    TMP DP  RH WIND       PRES   REMARKS
Newark/Liberty CLOUDY    39  37  92 SW3       30.01F
Teterboro      CLOUDY    38  35  89 CALM      30.00F FOG
Caldwell       CLOUDY    34  33  96 CALM      30.01F FOG
Somerville     CLOUDY    34  32  92 NW3       29.99F FOG
Linden         CLOUDY    38  36  93 CALM      30.01F FOG
Sussex         CLOUDY    31  31 100 CALM      29.97F FOG
Andover          N/A     34  33  96 S3        29.97F
Trenton        CLOUDY    40  38  93 S7        29.99F FOG
Millville      CLOUDY    42  42 100 CALM      30.02S
Atlantic City  CLOUDY    43  41  93 W6        30.02R
Wrightstown    CLOUDY    39  39 100 SW3       29.99F
Toms River     LGT RAIN  40  39  97 MISG      30.03R FOG
Belmar         LGT RAIN  39  38  96 SW6       30.03S FOG     WCI  35
$$

PAZ047>061-062-071-051400-
EASTERN PENNSYLVANIA

CITY           SKY/WX    TMP DP  RH WIND       PRES   REMARKS
Philadelphia   CLOUDY    42  39  89 S10       30.01F
Allentown      CLOUDY    34  32  92 CALM      29.99S FOG
Scranton       LGT RAIN  35  33  92 SW7       29.93R WCI  29
$$

CTZ002-004>006-009-010-012-RIZ004-006-007-MAZ004-011-015-051400-
SOUTHERN NEW ENGLAND
 IN CT

CITY           SKY/WX    TMP DP  RH WIND       PRES   REMARKS
Bradley INTL   LGT SNOW  29  26  89 N3        30.02F FOG
Hartford       LGT SNOW  30  28  92 CALM      30.03F FOG
Danbury        LGT SNOW  32  31  96 CALM      30.01S FOG
Wtrbury/Oxford LGT SNOW  30  27  86 CALM      30.00S FOG
Bridgeport     LGT RAIN  43  39  86 SW8       30.01F FOG
Meriden        MIX PCPN  32  28  85 W3        30.02F
New Haven      LGT RAIN  34  32  92 N6        30.02S FOG     WCI  29
Chester        LGT RAIN  32  30  93 CALM      30.00F
Groton         LGT RAIN  37  34  89 N6        30.02F FOG     WCI  32
Wilimantic     LGT SNOW  32  31  96 CALM      30.03F FOG

 IN RI

CITY           SKY/WX    TMP DP  RH WIND       PRES   REMARKS
Providence     LGT SNOW  31  29  92 N5        30.05F FOG     WCI  26
Block Island   LGT RAIN  43  37  81 S12       30.03R
Westerly       LGT RAIN  34  30  85 N6        30.03F WCI  29
 IN MA

CITY           SKY/WX    TMP DP  RH WIND       PRES   REMARKS
Boston         LGT SNOW  32  30  92 N3        30.07S VSB 3/4
Worcester      LGT SNOW  26  24  92 E5        29.99F VSB 1   WCI  20
Westfield      LGT SNOW  28  28 100 N3        30.01F FOG
Provincetown   LGT RAIN  37  31  78 SE5       30.08S WCI  33
Nantucket      CLOUDY    40  31  70 S9        30.06F WCI  34
$$

ANZ330-335-338-340-345-350-353-355-051400-
COASTAL MARINE OBSERVATIONS


STATION/POSITION TIME  SKY/WX   TEMP    WIND        PRES    VSBY  WAVE
                                AIR SEA DIR/SP/G                  HT/PER
                 (UTC)          (F)     (DEG/KT/KT) (MB)    (MI)  (FT/S)
NY HARB ENTRANCE 1150            46 53  210/ 16/ 19 1016.0          3/ 5
20 S FIRE ISLAND 1150            46 54  180/ 16/ 17 1016.0          3/ 4
GREAT SOUTH BAY  1215            44 43                N/A
23 SSW MONTAUK P 1150            45 54  200/ 12/ 17 1016.8          2/ 3
15 E BARNEGAT LI 1230               55                N/A           3/ 4
HUDSON CANYON    1150            48 58              1016.5          2/ 4
KINGS POINT      1230            40 47              1016.5
EXECUTION ROCKS  1245            41     270/  8/ 10   N/A
CENTRAL LI SOUND 1245            43 50  170/ 10/ 12   N/A           1/ 4
EASTERN LI SOUND NOT AVBL
ROBBINS REEF     1230            39     240/  5/  7 1016.9
$$


>>>>>>>>>>>>>>>>>>>>>>>>>>>> KEY <<<<<<<<<<<<<<<<<<<<<<<<<<<
>                                                          <
>     SKY/WX - Sky Condition/Present Weather               <
>     TMP    - Temperature in Fahrenheit                   <
>     DP     - Dew Point in Fahrenheit                     <
>     RH     - Relative Humidity in Percent                <
>     WIND   - Direction (from) and Speed in MPH           <
>     PRES   - Mean Sea Level Pressure (inches of Hg)      <
>     WCI    - Wind Chill Index                            <
>     VSB    - VISIBILITY IN MILES                         <
>     HX     - HEAT INDEX                                  <
>     TC     - TEMPERATURE IN CELSIUS                      <
>     VRB    - VARIABLE WIND DIRECTION                     <
>                                                          <
>>>>>>>>>>>>>>>>>>>>>>>>>>>> KEY <<<<<<<<<<<<<<<<<<<<<<<<<<<




USA.gov is the U.S. government's official web portal to all federal, state and local government web resources and services.